Location: Star Hoppers Observatory
(42.7905°N, 83.6127°W)
Time: 15:57:46
(UTC-04:00)

NOSS 3-1 (A) - Visible Passes

Search period start: 21 October 2014 00:00
Search period end: 31 October 2014 00:00
Orbit: 892 x 1321 km, 63.4° (Epoch: 19 October)

Date Brightness Start Highest point End Pass type
(mag) Time Alt. Az. Time Alt. Az. Time Alt. Az.
21 Oct 5.9 04:02:07 14° N 04:02:07 14° N 04:05:03 10° NNE visible
21 Oct 5.9 05:51:14 10° NNW 05:55:43 17° NNE 06:00:28 10° ENE visible
22 Oct 6.2 03:18:53 13° N 03:18:53 13° N 03:20:07 10° NNE visible
22 Oct 5.9 05:06:26 10° NNW 05:10:11 15° NNE 05:14:06 10° NE visible
22 Oct 5.4 06:57:11 10° NNW 07:03:39 32° NE 07:10:36 10° E visible
23 Oct 5.9 04:23:07 13° N 04:24:34 14° N 04:27:58 10° NNE visible
23 Oct 5.7 06:12:40 10° NNW 06:18:26 25° NNE 06:24:36 10° E visible
24 Oct 6.1 03:39:56 13° N 03:39:56 13° N 03:42:17 10° NNE visible
24 Oct 5.9 05:28:05 10° NNW 05:33:05 20° NNE 05:38:22 10° ENE visible
24 Oct 4.7 07:18:31 10° NNW 07:25:46 54° NE 07:33:36 10° ESE visible
25 Oct 6.4 02:56:46 11° NNE 02:56:46 11° NNE 02:57:07 10° NNE visible
25 Oct 5.9 04:44:13 12° NNW 04:47:36 16° NNE 04:52:01 10° NE visible
25 Oct 5.2 06:33:59 10° NNW 06:40:47 39° NE 06:48:08 10° ESE visible
26 Oct 6.0 04:01:05 14° N 04:02:02 14° N 04:05:42 10° NE visible
26 Oct 5.5 05:49:27 10° NNW 05:55:40 29° NE 06:02:20 10° E visible
27 Oct 6.2 03:18:00 13° NNE 03:18:00 13° NNE 03:19:43 10° NNE visible
27 Oct 5.8 05:05:28 12° NNW 05:10:24 22° NNE 05:16:14 10° ENE visible
27 Oct 4.4 06:55:21 10° NNW 07:02:46 66° NE 07:10:47 10° SE visible
28 Oct 5.9 04:22:25 15° N 04:24:59 18° NNE 04:29:56 10° ENE visible
28 Oct 4.8 06:10:46 10° NNW 06:17:52 47° NE 06:25:32 10° ESE visible
29 Oct 6.0 03:39:27 15° NNE 03:39:28 15° NNE 03:43:34 10° NE visible
29 Oct 5.3 05:26:55 13° NNW 05:32:50 35° NE 05:39:56 10° ESE visible
29 Oct 4.1 07:16:55 10° NW 07:24:25 71° WSW 07:32:28 10° SSE visible
30 Oct 6.4 02:56:33 11° NNE 02:56:33 11° NNE 02:57:21 10° NE visible
30 Oct 5.6 04:44:01 18° N 04:47:40 26° NNE 04:54:01 10° E visible
30 Oct 4.1 06:32:12 10° NW 06:39:43 82° NE 06:47:50 10° SE visible
